[[{"header":{"parameterUnit":"m.s-1","parameterCategory":1,"la1":30.2991,"la2":30.254,"lo1":-89.0895,"lo2":-89.0444,"dy":0.0017,"dx":0.0017,"nx":28,"ny":28,"refTime":"2024-09-30T03:00:00:Z","depth":0,"parameterNumber":2,"parameterNumberName":"U-component_of_WINDS"},"data":[0,0,0,0,0,0,0,0,0,0,0,0,0,0,0,0,0,0,0,0,0,0,0,0,0,0,0,0,0,0,0,0,0,0,0,0,0,0,0,0,0,0,0,0,0,0,0,0,0,0,0,0,0,0,0,0,0,0,0.175,0.175,0,0.1817,0.1818,0.1819,0.1851,0.1851,0.1851,0.1851,0.1918,0.192,0.1922,0,0,0,0,0,0,0,0,0,0,0,0,0,0.1646,0.1648,0.175,0.175,0.1751,0.1817,0.1818,0.1819,0.1851,0.1851,0.1851,0.1851,0.1918,0.192,0.1922,0,0,0,0,0,0,0,0,0,0,0,0,0,0.17,0.1649,0.1749,0.1775,0.1778,0.1817,0.1818,0.1819,0.1851,0.1851,0.1851,0.1851,0.1917,0.192,0.1923,0.194,0,0,0.1931,0.1932,0,0,0,0,0,0,0,0,0.1697,0.1704,0.1771,0.1773,0.1777,0.1826,0.1807,0.186,0.1851,0.1823,0.1851,0.1851,0.1887,0.1893,0.1905,0.1943,0.1946,0.1931,0.1933,0.1934,0.1935,0,0,0,0,0,0,0,0.1693,0.1701,0.1776,0.1771,0.1775,0.1783,0.179,0.1817,0.1855,0.1826,0.1828,0.1836,0.1889,0.1903,0.1907,0.1947,0.1931,0.1934,0.1935,0.1936,0.2003,0.2004,0,0,0,0,0,0,0.1686,0.1698,0.1774,0.1778,0.1736,0.1785,0.1793,0.181,0.1855,0.1861,0.1836,0.1837,0.1898,0.1904,0.191,0.1934,0.1934,0.1937,0.1938,0.2003,0.2004,0.2004,0,0,0,0,0,0,0.1683,0.1692,0.1771,0.1739,0.175,0.1786,0.1805,0.1811,0.1825,0.1862,0.1869,0.1843,0.1898,0.1906,0.1933,0.1936,0.1938,0.194,0.2003,0.2003,0.2004,0.1982,0,0,0,0,0,0,0.168,0.1691,0.1699,0.1739,0.1751,0.1794,0.1805,0.1813,0.183,0.1832,0.187,0.1877,0.1899,0.1928,0.1935,0.194,0.1942,0.2003,0.2003,0.2004,0.1982,0.1981,0.198,0,0,0,0,0,0.1676,0.1689,0.1699,0.1708,0.1761,0.1794,0.1801,0.1826,0.183,0.1838,0.1861,0.1876,0.1935,0.1931,0.1939,0.1945,0.2003,0.2003,0.2003,0.1983,0.1981,0.198,0,0,0,0,0,0,0.1648,0.1695,0.1706,0.1733,0.1759,0.1799,0.181,0.1824,0.1849,0.185,0.188,0.1889,0.1913,0.1931,0.1926,0.1964,0.197,0.1972,0.1951,0.195,0.1949,0.1945,0.1945,0,0,0,0,0,0.1645,0.1668,0.1708,0.1727,0.174,0.1772,0.1787,0.1805,0.1833,0.1844,0.187,0.1897,0.1921,0.1937,0.1962,0.1985,0.1994,0.1993,0.1992,0.1991,0.1992,0.2006,0.2006,0.2005,0.2005,0.2005,0,0,0.1639,0.1667,0.168,0.1722,0.1745,0.1767,0.1781,0.1805,0.1822,0.1848,0.1875,0.1894,0.1926,0.1951,0.1963,0.1967,0.1994,0.1991,0.199,0.1992,0.2006,0.2006,0.2006,0.2005,0.2005,0.2005,0,0,0.1639,0.1663,0.1682,0.1704,0.1738,0.176,0.1764,0.1802,0.1817,0.1844,0.1864,0.1885,0.1926,0.1948,0.1965,0.1973,0.1987,0.198,0.1975,0.1988,0.1988,0.1988,0.1991,0.1992,0.1981,0.1981,0.1981,0,0.1627,0.1662,0.169,0.1712,0.173,0.1755,0.1774,0.1794,0.1834,0.1846,0.185,0.1903,0.1926,0.1956,0.1958,0.1971,0.1977,0.1976,0.1986,0.1986,0.1987,0.199,0.1991,0.198,0.198,0.198,0.198,0,0.1646,0.167,0.1681,0.172,0.1739,0.1759,0.1789,0.1805,0.1821,0.1842,0.1869,0.1898,0.1929,0.1937,0.1952,0.197,0.1971,0.198,0.1986,0.1985,0.1989,0.199,0.1979,0.1979,0.1979,0.198,0,0,0.163,0.1684,0.1688,0.1706,0.1745,0.1764,0.1785,0.1816,0.1829,0.1856,0.1874,0.1909,0.1918,0.1936,0.1954,0.1965,0.197,0.1973,0.1974,0.1971,0.1991,0.1985,0.1986,0.1979,0.198,0.198,0.1989,0,0.1636,0.1677,0.1702,0.1732,0.1755,0.1778,0.1797,0.1823,0.1843,0.1864,0.1886,0.1911,0.192,0.1931,0.1943,0.1967,0.1975,0.1967,0.1997,0.1998,0.1989,0.1988,0.1981,0.1988,0.199,0.199,0.1991,0,0.1649,0.1675,0.1708,0.1745,0.1755,0.1772,0.1802,0.1822,0.1852,0.1866,0.1886,0.1904,0.1928,0.1932,0.1964,0.1958,0.1972,0.1985,0.1986,0.199,0.1994,0.1992,0.199,0.1991,0.1993,0.1993,0.1993,0,0.1634,0.1678,0.1704,0.1718,0.1762,0.1773,0.1791,0.1821,0.1838,0.1864,0.1875,0.1903,0.1919,0.194,0.1965,0.1966,0.1995,0.2001,0.2007,0.2006,0.2012,0.2011,0.2013,0.202,0.202,0.202,0.202,0,0.1639,0.1657,0.1698,0.1713,0.1735,0.1764,0.1784,0.1805,0.1831,0.185,0.1872,0.189,0.1922,0.1943,0.1963,0.1987,0.1993,0.2005,0.201,0.2003,0.2002,0.2013,0.2013,0.202,0.202,0.202,0.202,0,0.1626,0.1654,0.1683,0.1723,0.1733,0.1747,0.178,0.1796,0.1817,0.1841,0.1849,0.1882,0.1908,0.1935,0.1971,0.1984,0.2007,0.2014,0.1997,0.2,0.2004,0.2004,0.2013,0.2016,0.2021,0.2021,0.2021,0,0.1627,0.1643,0.1684,0.1699,0.1717,0.174,0.1758,0.1786,0.1804,0.1838,0.185,0.1878,0.1902,0.1943,0.197,0.1997,0.2005,0.2006,0.2009,0.2002,0.2005,0.2004,0.2006,0.2005,0.2005,0.2005,0.2005,0,0.1626,0.1639,0.1664,0.1694,0.1714,0.1739,0.1764,0.1775,0.1808,0.1826,0.1853,0.1872,0.1909,0.1936,0.1967,0.1985,0.2001,0.2004,0.2007,0.2,0.199,0.1996,0.1995,0.2004,0.2004,0.2004,0.2004,0.2004,0.1621,0.1636,0.1667,0.1694,0.1716,0.1739,0.1756,0.1779,0.1803,0.1835,0.185,0.1878,0.1907,0.1949,0.1968,0.1989,0.1994,0.1997,0.1999,0.1999,0.1998,0.1986,0.1995,0.1995,0.1995,0.1995,0.1995,0,0.1621,0.1642,0.1667,0.1702,0.1723,0.1736,0.1764,0.1781,0.1805,0.1831,0.1854,0.1886,0.1913,0.1942,0.197,0.1982,0.199,0.1989,0.1988,0.1992,0.1992,0.1987,0.1982,0.1982,0.1982,0.1982,0.1982,0.1982,0.1623,0.1649,0.1666,0.1703,0.1724,0.1751,0.1767,0.1788,0.1809,0.1843,0.1866,0.1885,0.1912,0.1943,0.1968,0.1976,0.1985,0.1982,0.1992,0.1991,0.1992,0.1993,0.1989,0.1984,0.1984,0.199,0.199,0.199]},{"header":{"parameterUnit":"m.s-1","parameterCategory":1,"la1":30.2991,"la2":30.254,"lo1":-89.0895,"lo2":-89.0444,"dy":0.0017,"dx":0.0017,"nx":28,"ny":28,"refTime":"2024-09-30T03:00:00:Z","depth":0,"parameterNumber":3,"parameterNumberName":"V-component_of_WINDS"},"data":[0,0,0,0,0,0,0,0,0,0,0,0,0,0,0,0,0,0,0,0,0,0,0,0,0,0,0,0,0,0,0,0,0,0,0,0,0,0,0,0,0,0,0,0,0,0,0,0,0,0,0,0,0,0,0,0,0,0,2.6566,2.6566,0,2.6556,2.6556,2.6556,2.6505,2.6503,2.6502,2.6501,2.6491,2.6492,2.6493,0,0,0,0,0,0,0,0,0,0,0,0,0,2.6542,2.6543,2.6566,2.6566,2.6566,2.6556,2.6556,2.6556,2.6505,2.6503,2.6502,2.65,2.6491,2.6492,2.6493,0,0,0,0,0,0,0,0,0,0,0,0,0,2.6544,2.6543,2.6566,2.6539,2.6537,2.6556,2.6556,2.6556,2.6505,2.6503,2.6501,2.65,2.649,2.6491,2.6493,2.6537,0,0,2.6497,2.6497,0,0,0,0,0,0,0,0,2.6544,2.6545,2.6544,2.6541,2.6539,2.653,2.6543,2.6549,2.6506,2.6517,2.6501,2.6499,2.6505,2.6505,2.6507,2.6537,2.6536,2.6497,2.6498,2.6498,2.6499,0,0,0,0,0,0,0,2.6544,2.6545,2.6562,2.6544,2.6541,2.6528,2.6526,2.6544,2.6522,2.6516,2.6512,2.6512,2.6504,2.6506,2.6507,2.6536,2.6497,2.6498,2.6499,2.6499,2.66,2.6602,0,0,0,0,0,0,2.6548,2.6545,2.6562,2.6562,2.6537,2.653,2.6528,2.6534,2.6521,2.6517,2.6513,2.6509,2.6505,2.6505,2.6506,2.6556,2.6498,2.6499,2.65,2.6598,2.6601,2.6603,0,0,0,0,0,0,2.6547,2.655,2.6563,2.6553,2.6553,2.6532,2.654,2.6535,2.6538,2.6519,2.6515,2.652,2.6503,2.6504,2.6529,2.6555,2.65,2.6501,2.6596,2.6599,2.6602,2.6658,0,0,0,0,0,0,2.6547,2.655,2.6566,2.6553,2.6554,2.6587,2.6541,2.6536,2.654,2.6535,2.6524,2.6521,2.6502,2.6528,2.6531,2.6556,2.6502,2.6594,2.6597,2.6601,2.6653,2.6662,2.6669,0,0,0,0,0,2.6546,2.6583,2.6568,2.657,2.6575,2.6588,2.6589,2.6566,2.6542,2.6559,2.6547,2.6521,2.6552,2.6531,2.6534,2.656,2.6592,2.6596,2.66,2.665,2.666,2.6669,0,0,0,0,0,0,2.66,2.6581,2.6563,2.6597,2.6595,2.658,2.66,2.6578,2.6582,2.6577,2.6549,2.6547,2.6577,2.6571,2.6547,2.6601,2.6568,2.6573,2.6604,2.6614,2.6622,2.6622,2.6503,0,0,0,0,0,2.6616,2.6628,2.6611,2.6642,2.6642,2.6621,2.6626,2.6609,2.6606,2.6604,2.6594,2.6592,2.66,2.6607,2.6614,2.6652,2.6649,2.6672,2.668,2.6687,2.6691,2.671,2.672,2.6617,2.6617,2.6617,0,0,2.6648,2.664,2.6649,2.6653,2.6649,2.6663,2.6621,2.6637,2.6647,2.6607,2.663,2.6622,2.6618,2.6649,2.6663,2.6645,2.6719,2.6692,2.6697,2.6698,2.6715,2.6725,2.6734,2.662,2.6619,2.6619,0,0,2.6715,2.671,2.6735,2.6732,2.6726,2.6712,2.6718,2.6706,2.6699,2.6722,2.6692,2.6703,2.6719,2.6717,2.6718,2.6783,2.676,2.6786,2.6828,2.6847,2.6855,2.6862,2.6885,2.6893,2.6791,2.6791,2.6791,0,2.6756,2.6775,2.6751,2.6769,2.6771,2.6735,2.676,2.6758,2.6756,2.6758,2.6738,2.6757,2.6752,2.6782,2.6798,2.68,2.6806,2.6787,2.6856,2.6863,2.6869,2.689,2.6899,2.6794,2.6794,2.6794,2.6793,0,2.6826,2.684,2.6861,2.6859,2.6863,2.6885,2.6863,2.6871,2.6853,2.6841,2.6864,2.6856,2.6861,2.6867,2.685,2.6895,2.6884,2.6861,2.6826,2.6883,2.6902,2.691,2.6799,2.6798,2.6797,2.6796,0,0,2.6926,2.6909,2.6917,2.6916,2.6907,2.6917,2.6937,2.6941,2.6948,2.6947,2.6963,2.6977,2.6955,2.6957,2.6939,2.6956,2.7007,2.693,2.693,2.6944,2.7055,2.7072,2.7082,2.6992,2.6993,2.6994,2.7055,0,2.6989,2.7021,2.6999,2.7036,2.7048,2.7014,2.7031,2.7027,2.7016,2.7025,2.7013,2.7023,2.6994,2.6995,2.701,2.6998,2.7029,2.6993,2.7006,2.7006,2.7007,2.7092,2.7111,2.7168,2.7063,2.7064,2.7065,0,2.7066,2.7068,2.7106,2.7094,2.7098,2.7114,2.7115,2.7124,2.7119,2.711,2.7112,2.709,2.7108,2.7075,2.7099,2.7076,2.708,2.7075,2.7076,2.7076,2.7039,2.7094,2.7186,2.7195,2.7077,2.7076,2.7075,0,2.7134,2.7147,2.717,2.717,2.7157,2.7168,2.7164,2.7157,2.7161,2.7162,2.7164,2.7169,2.7171,2.7175,2.7154,2.7132,2.7182,2.7147,2.7175,2.7175,2.7186,2.7186,2.728,2.719,2.719,2.719,2.719,0,2.7206,2.723,2.7201,2.7215,2.7241,2.7215,2.7242,2.7233,2.7227,2.7239,2.7211,2.7223,2.7196,2.7205,2.719,2.7212,2.7214,2.7207,2.7202,2.7209,2.721,2.7211,2.7206,2.7192,2.7191,2.7191,2.7191,0,2.7287,2.7268,2.7291,2.7276,2.7273,2.7293,2.728,2.7293,2.728,2.7296,2.7298,2.7278,2.7288,2.7268,2.7275,2.7265,2.7297,2.7286,2.7298,2.7295,2.7324,2.7321,2.7421,2.7433,2.7336,2.7337,2.7338,0,2.7333,2.7351,2.7338,2.7344,2.734,2.735,2.7354,2.733,2.7334,2.733,2.7343,2.735,2.7354,2.7371,2.7358,2.7363,2.7352,2.7386,2.7352,2.7358,2.7351,2.735,2.7352,2.7393,2.7395,2.7396,2.7396,0,2.7418,2.7408,2.7414,2.7417,2.7422,2.7423,2.7422,2.7429,2.7403,2.741,2.7419,2.7422,2.7429,2.7436,2.7438,2.7433,2.7411,2.7407,2.7414,2.7421,2.7427,2.7423,2.7317,2.7405,2.7404,2.7403,2.7403,2.7403,2.7482,2.7496,2.7489,2.7497,2.7493,2.7493,2.7504,2.7493,2.75,2.7503,2.7488,2.7501,2.7495,2.7495,2.7492,2.7502,2.7486,2.7496,2.7498,2.7501,2.7505,2.7426,2.7502,2.7502,2.7502,2.7501,2.7501,0,2.7565,2.7559,2.7566,2.7565,2.7572,2.755,2.7547,2.7554,2.7565,2.7561,2.7566,2.7576,2.7583,2.757,2.7575,2.7585,2.7575,2.7587,2.7586,2.7585,2.7519,2.7513,2.7595,2.7595,2.7595,2.7595,2.7595,2.7595,2.7609,2.7631,2.7619,2.7639,2.7633,2.7644,2.7645,2.7644,2.7641,2.7654,2.7659,2.7651,2.7643,2.7647,2.7653,2.7648,2.7651,2.7667,2.766,2.7599,2.759,2.7581,2.7574,2.7668,2.7668,2.7724,2.7725,2.7725]}]]